Time,TemperatureF,DewpointF,PressureIn,WindDirection,WindDirectionDegrees,WindSpeedMPH,WindSpeedGustMPH,Humidity,HourlyPrecipIn,Conditions,Clouds,dailyrainin,SoftwareType,DateUTC
2013-02-05 00:11:00,31.1,23.0,29.87,South,182,2.0,-999.0,71,-99.99,,,0.00,weatherlink.com 1.10,2013-02-05 07:11:00,
2013-02-05 00:26:00,31.9,22.0,29.86,SSW,200,0.0,-999.0,67,-99.99,,,0.00,weatherlink.com 1.10,2013-02-05 07:26:00,
2013-02-05 00:41:00,32.0,21.0,29.87,SSW,192,1.0,-999.0,65,-99.99,,,0.00,weatherlink.com 1.10,2013-02-05 07:41:00,
2013-02-05 00:56:00,31.9,22.0,29.86,SSW,192,1.0,-999.0,66,-99.99,,,0.00,weatherlink.com 1.10,2013-02-05 07:56:00,
2013-02-05 01:11:00,31.4,22.0,29.84,SSW,192,1.0,-999.0,69,-99.99,,,0.00,weatherlink.com 1.10,2013-02-05 08:11:00,
2013-02-05 01:26:00,30.3,22.0,29.83,South,187,2.0,-999.0,71,-99.99,,,0.00,weatherlink.com 1.10,2013-02-05 08:26:00,
2013-02-05 01:41:00,30.6,22.0,29.83,South,186,1.0,-999.0,69,-99.99,,,0.00,weatherlink.com 1.10,2013-02-05 08:41:00,
2013-02-05 01:56:00,30.8,22.0,29.81,South,186,2.0,-999.0,70,-99.99,,,0.00,weatherlink.com 1.10,2013-02-05 08:56:00,
2013-02-05 02:11:00,31.4,21.0,29.81,SSE,153,0.0,-999.0,65,-99.99,,,0.00,weatherlink.com 1.10,2013-02-05 09:11:00,
2013-02-05 02:26:00,31.9,21.0,29.81,SSE,153,2.0,-999.0,64,-99.99,,,0.00,weatherlink.com 1.10,2013-02-05 09:26:00,
2013-02-05 02:41:00,31.9,21.0,29.80,SSE,153,0.0,-999.0,65,-99.99,,,0.00,weatherlink.com 1.10,2013-02-05 09:41:00,
2013-02-05 02:56:00,31.5,22.0,29.79,SSE,153,0.0,-999.0,67,-99.99,,,0.00,weatherlink.com 1.10,2013-02-05 09:56:00,
2013-02-05 03:11:00,31.0,22.0,29.79,SSE,153,1.0,-999.0,69,-99.99,,,0.00,weatherlink.com 1.10,2013-02-05 10:11:00,
2013-02-05 03:26:00,31.9,22.0,29.79,SSW,209,3.0,-999.0,68,-99.99,,,0.00,weatherlink.com 1.10,2013-02-05 10:26:00,
2013-02-05 03:41:00,32.0,23.0,29.78,SSW,195,6.0,-999.0,69,-99.99,,,0.00,weatherlink.com 1.10,2013-02-05 10:41:00,
2013-02-05 03:56:00,31.9,23.0,29.78,SSW,199,4.0,-999.0,71,-99.99,,,0.00,weatherlink.com 1.10,2013-02-05 10:56:00,
2013-02-05 04:11:00,31.7,24.0,29.77,SSW,198,0.0,-999.0,72,-99.99,,,0.00,weatherlink.com 1.10,2013-02-05 11:11:00,
2013-02-05 04:26:00,31.2,24.0,29.77,SSW,198,3.0,-999.0,74,-99.99,,,0.00,weatherlink.com 1.10,2013-02-05 11:26:00,
2013-02-05 04:41:00,30.7,24.0,29.77,SSW,212,3.0,-999.0,77,-99.99,,,0.00,weatherlink.com 1.10,2013-02-05 11:41:00,
2013-02-05 04:56:00,30.9,25.0,29.75,SSW,212,3.0,-999.0,77,-99.99,,,0.00,weatherlink.com 1.10,2013-02-05 11:56:00,
2013-02-05 05:12:00,30.8,24.0,29.75,SSW,199,3.0,-999.0,77,-99.99,,,0.00,weatherlink.com 1.10,2013-02-05 12:12:00,
2013-02-05 05:27:00,30.7,25.0,29.76,SSW,206,3.0,-999.0,78,-99.99,,,0.00,weatherlink.com 1.10,2013-02-05 12:27:00,
2013-02-05 05:41:00,30.6,25.0,29.75,SSW,206,0.0,-999.0,78,-99.99,,,0.00,weatherlink.com 1.10,2013-02-05 12:41:00,
2013-02-05 05:57:00,30.5,24.0,29.75,SSW,206,2.0,-999.0,78,-99.99,,,0.00,weatherlink.com 1.10,2013-02-05 12:57:00,
2013-02-05 06:12:00,31.4,24.0,29.73,SSW,205,1.0,-999.0,75,-99.99,,,0.00,weatherlink.com 1.10,2013-02-05 13:12:00,
2013-02-05 06:27:00,31.7,25.0,29.73,SSW,205,1.0,-999.0,75,-99.99,,,0.00,weatherlink.com 1.10,2013-02-05 13:27:00,
2013-02-05 06:42:00,31.5,24.0,29.73,SSW,205,0.0,-999.0,75,-99.99,,,0.00,weatherlink.com 1.10,2013-02-05 13:42:00,
2013-02-05 06:57:00,31.5,25.0,29.73,SSW,205,3.0,-999.0,76,-99.99,,,0.00,weatherlink.com 1.10,2013-02-05 13:57:00,
2013-02-05 07:12:00,31.6,25.0,29.73,SSW,205,2.0,-999.0,75,-99.99,,,0.00,weatherlink.com 1.10,2013-02-05 14:12:00,
2013-02-05 07:27:00,31.9,24.0,29.73,SSW,205,1.0,-999.0,73,-99.99,,,0.00,weatherlink.com 1.10,2013-02-05 14:27:00,
2013-02-05 07:42:00,31.4,24.0,29.73,SSW,205,1.0,-999.0,75,-99.99,,,0.00,weatherlink.com 1.10,2013-02-05 14:42:00,
2013-02-05 07:57:00,31.3,24.0,29.72,SSW,204,1.0,-999.0,75,-99.99,,,0.00,weatherlink.com 1.10,2013-02-05 14:57:00,
2013-02-05 08:13:00,31.4,24.0,29.71,SSW,200,2.0,-999.0,74,-99.99,,,0.00,weatherlink.com 1.10,2013-02-05 15:13:00,
2013-02-05 08:27:00,31.9,24.0,29.71,SSW,199,1.0,-999.0,73,-99.99,,,0.00,weatherlink.com 1.10,2013-02-05 15:27:00,
2013-02-05 08:42:00,32.7,24.0,29.71,SSW,199,1.0,-999.0,71,-99.99,,,0.00,weatherlink.com 1.10,2013-02-05 15:42:00,
2013-02-05 08:57:00,32.8,23.0,29.71,SSW,199,4.0,-999.0,68,-99.99,,,0.00,weatherlink.com 1.10,2013-02-05 15:57:00,
2013-02-05 09:13:00,33.0,23.0,29.71,SSW,201,0.0,-999.0,66,-99.99,,,0.00,weatherlink.com 1.10,2013-02-05 16:13:00,
2013-02-05 09:27:00,32.0,24.0,29.71,SSW,198,0.0,-999.0,71,-99.99,,,0.00,weatherlink.com 1.10,2013-02-05 16:27:00,
2013-02-05 09:41:00,33.8,25.0,29.70,SSW,198,0.0,-999.0,69,-99.99,,,0.00,weatherlink.com 1.10,2013-02-05 16:41:00,
2013-02-05 09:58:00,35.5,25.0,29.70,SSW,198,1.0,-999.0,65,-99.99,,,0.00,weatherlink.com 1.10,2013-02-05 16:58:00,
2013-02-05 10:12:00,34.4,23.0,29.70,SSW,198,2.0,-999.0,63,-99.99,,,0.00,weatherlink.com 1.10,2013-02-05 17:12:00,
2013-02-05 10:27:00,34.6,22.0,29.69,SSW,198,4.0,-999.0,60,-99.99,,,0.00,weatherlink.com 1.10,2013-02-05 17:27:00,
2013-02-05 10:43:00,35.0,22.0,29.68,SSW,198,1.0,-999.0,59,-99.99,,,0.00,weatherlink.com 1.10,2013-02-05 17:43:00,
2013-02-05 10:57:00,35.1,21.0,29.68,SSW,198,0.0,-999.0,58,-99.99,,,0.00,weatherlink.com 1.10,2013-02-05 17:57:00,
2013-02-05 11:12:00,34.4,22.0,29.67,SSW,198,0.0,-999.0,62,-99.99,,,0.00,weatherlink.com 1.10,2013-02-05 18:12:00,
2013-02-05 11:27:00,35.3,22.0,29.67,SSW,198,2.0,-999.0,59,-99.99,,,0.00,weatherlink.com 1.10,2013-02-05 18:27:00,
2013-02-05 11:43:00,38.6,22.0,29.66,SSW,198,0.0,-999.0,52,-99.99,,,0.00,weatherlink.com 1.10,2013-02-05 18:43:00,
2013-02-05 11:57:00,40.2,23.0,29.66,SSW,198,0.0,-999.0,50,-99.99,,,0.00,weatherlink.com 1.10,2013-02-05 18:57:00,
2013-02-05 12:12:00,41.0,23.0,29.64,SSW,198,0.0,-999.0,49,-99.99,,,0.00,weatherlink.com 1.10,2013-02-05 19:12:00,
2013-02-05 12:28:00,41.3,23.0,29.64,SSW,198,0.0,-999.0,48,-99.99,,,0.00,weatherlink.com 1.10,2013-02-05 19:28:00,
2013-02-05 12:42:00,42.1,23.0,29.63,SSW,198,0.0,-999.0,47,-99.99,,,0.00,weatherlink.com 1.10,2013-02-05 19:42:00,
2013-02-05 12:58:00,42.9,23.0,29.62,SSW,198,0.0,-999.0,46,-99.99,,,0.00,weatherlink.com 1.10,2013-02-05 19:58:00,
2013-02-05 13:12:00,43.3,23.0,29.61,SSW,198,0.0,-999.0,45,-99.99,,,0.00,weatherlink.com 1.10,2013-02-05 20:12:00,
2013-02-05 13:27:00,44.3,25.0,29.60,SSW,198,1.0,-999.0,46,-99.99,,,0.00,weatherlink.com 1.10,2013-02-05 20:27:00,
2013-02-05 13:42:00,39.9,22.0,29.59,SW,232,5.0,-999.0,50,-99.99,,,0.00,weatherlink.com 1.10,2013-02-05 20:42:00,
2013-02-05 13:57:00,39.8,22.0,29.57,SSW,202,6.0,-999.0,49,-99.99,,,0.00,weatherlink.com 1.10,2013-02-05 20:57:00,
2013-02-05 14:12:00,39.6,23.0,29.56,SSW,210,6.0,-999.0,51,-99.99,,,0.00,weatherlink.com 1.10,2013-02-05 21:12:00,
2013-02-05 14:27:00,39.3,22.0,29.56,SW,217,10.0,-999.0,50,-99.99,,,0.00,weatherlink.com 1.10,2013-02-05 21:27:00,
2013-02-05 14:42:00,39.2,22.0,29.55,SW,215,7.0,-999.0,51,-99.99,,,0.00,weatherlink.com 1.10,2013-02-05 21:42:00,
2013-02-05 14:57:00,39.5,22.0,29.55,SSW,203,5.0,-999.0,49,-99.99,,,0.00,weatherlink.com 1.10,2013-02-05 21:57:00,
2013-02-05 15:12:00,39.5,22.0,29.54,SSW,205,5.0,-999.0,50,-99.99,,,0.00,weatherlink.com 1.10,2013-02-05 22:12:00,
2013-02-05 15:27:00,39.2,21.0,29.54,SSW,205,3.0,-999.0,49,-99.99,,,0.00,weatherlink.com 1.10,2013-02-05 22:27:00,
2013-02-05 15:42:00,39.1,22.0,29.53,SSW,205,3.0,-999.0,50,-99.99,,,0.00,weatherlink.com 1.10,2013-02-05 22:42:00,
2013-02-05 15:57:00,38.8,21.0,29.53,SSW,205,4.0,-999.0,50,-99.99,,,0.00,weatherlink.com 1.10,2013-02-05 22:57:00,
2013-02-05 16:12:00,39.2,21.0,29.53,SSW,207,4.0,-999.0,48,-99.99,,,0.00,weatherlink.com 1.10,2013-02-05 23:12:00,
2013-02-05 16:27:00,38.8,21.0,29.52,SW,215,4.0,-999.0,49,-99.99,,,0.00,weatherlink.com 1.10,2013-02-05 23:27:00,
2013-02-05 16:42:00,38.2,21.0,29.52,SW,215,2.0,-999.0,51,-99.99,,,0.00,weatherlink.com 1.10,2013-02-05 23:42:00,
2013-02-05 16:57:00,37.4,21.0,29.52,SW,215,1.0,-999.0,51,-99.99,,,0.00,weatherlink.com 1.10,2013-02-05 23:57:00,
2013-02-05 17:12:00,37.1,20.0,29.51,SW,215,1.0,-999.0,50,-99.99,,,0.00,weatherlink.com 1.10,2013-02-06 00:12:00,
2013-02-05 17:27:00,36.1,19.0,29.51,SW,215,2.0,-999.0,50,-99.99,,,0.00,weatherlink.com 1.10,2013-02-06 00:27:00,
2013-02-05 17:42:00,35.7,19.0,29.51,SW,215,2.0,-999.0,50,-99.99,,,0.00,weatherlink.com 1.10,2013-02-06 00:42:00,
2013-02-05 17:58:00,33.8,18.0,29.51,SW,215,0.0,-999.0,53,-99.99,,,0.00,weatherlink.com 1.10,2013-02-06 00:58:00,
2013-02-05 18:12:00,32.4,19.0,29.51,SW,215,0.0,-999.0,58,-99.99,,,0.00,weatherlink.com 1.10,2013-02-06 01:12:00,
2013-02-05 18:27:00,30.6,19.0,29.50,SW,215,2.0,-999.0,62,-99.99,,,0.00,weatherlink.com 1.10,2013-02-06 01:27:00,
2013-02-05 18:42:00,30.7,19.0,29.50,SW,215,1.0,-999.0,62,-99.99,,,0.00,weatherlink.com 1.10,2013-02-06 01:42:00,
2013-02-05 18:57:00,30.8,19.0,29.50,SW,215,1.0,-999.0,62,-99.99,,,0.00,weatherlink.com 1.10,2013-02-06 01:57:00,
2013-02-05 19:12:00,31.2,19.0,29.49,SSW,204,1.0,-999.0,60,-99.99,,,0.00,weatherlink.com 1.10,2013-02-06 02:12:00,
2013-02-05 19:27:00,31.8,19.0,29.49,South,182,3.0,-999.0,60,-99.99,,,0.00,weatherlink.com 1.10,2013-02-06 02:27:00,
2013-02-05 19:42:00,31.8,19.0,29.49,South,178,4.0,-999.0,59,-99.99,,,0.00,weatherlink.com 1.10,2013-02-06 02:42:00,
2013-02-05 19:57:00,32.5,20.0,29.49,South,179,4.0,-999.0,60,-99.99,,,0.00,weatherlink.com 1.10,2013-02-06 02:57:00,
2013-02-05 20:12:00,31.9,20.0,29.49,South,179,0.0,-999.0,62,-99.99,,,0.00,weatherlink.com 1.10,2013-02-06 03:12:00,
2013-02-05 20:28:00,31.7,21.0,29.49,South,180,2.0,-999.0,64,-99.99,,,0.00,weatherlink.com 1.10,2013-02-06 03:28:00,
2013-02-05 20:42:00,30.8,21.0,29.49,South,180,1.0,-999.0,66,-99.99,,,0.00,weatherlink.com 1.10,2013-02-06 03:42:00,
2013-02-05 20:57:00,30.5,20.0,29.49,South,180,0.0,-999.0,66,-99.99,,,0.00,weatherlink.com 1.10,2013-02-06 03:57:00,
2013-02-05 21:12:00,30.0,20.0,29.49,South,180,0.0,-999.0,67,-99.99,,,0.00,weatherlink.com 1.10,2013-02-06 04:12:00,
2013-02-05 21:28:00,28.5,20.0,29.48,South,180,0.0,-999.0,69,-99.99,,,0.00,weatherlink.com 1.10,2013-02-06 04:28:00,
2013-02-05 21:42:00,28.2,20.0,29.49,South,180,0.0,-999.0,70,-99.99,,,0.00,weatherlink.com 1.10,2013-02-06 04:42:00,
2013-02-05 21:58:00,29.2,19.0,29.48,South,180,0.0,-999.0,67,-99.99,,,0.00,weatherlink.com 1.10,2013-02-06 04:58:00,
2013-02-05 22:13:00,29.2,19.0,29.48,South,180,1.0,-999.0,66,-99.99,,,0.00,weatherlink.com 1.10,2013-02-06 05:13:00,
2013-02-05 22:27:00,29.0,19.0,29.48,South,180,0.0,-999.0,66,-99.99,,,0.00,weatherlink.com 1.10,2013-02-06 05:27:00,
2013-02-05 22:43:00,29.2,18.0,29.47,South,180,1.0,-999.0,62,-99.99,,,0.00,weatherlink.com 1.10,2013-02-06 05:43:00,
2013-02-05 22:57:00,29.2,17.0,29.47,South,180,0.0,-999.0,60,-99.99,,,0.00,weatherlink.com 1.10,2013-02-06 05:57:00,
2013-02-05 23:27:00,27.2,16.0,29.47,South,180,0.0,-999.0,63,-99.99,,,0.00,weatherlink.com 1.10,2013-02-06 06:27:00,
2013-02-05 23:42:00,26.7,16.0,29.48,South,180,0.0,-999.0,64,-99.99,,,0.00,weatherlink.com 1.10,2013-02-06 06:42:00,
2013-02-05 23:57:00,27.6,16.0,29.48,South,180,0.0,-999.0,63,-99.99,,,0.00,weatherlink.com 1.10,2013-02-06 06:57:00,